IRIDIUM 166 (43570 NORAD) Tracking and Keplerian Element Data

This shows tracking and keplerian element data for the satellite.

Feedback or suggestion? Click here.




ElementValue
Catalog43570
NameIRIDIUM 166
Epoch Orbit32559
Epoch Day286.5878944
Epoch Year2024
RAAN312.7565
Inclination86.3946
Eccentricity0.0002481
Argument of Perigee97.3474
Mean Anonmoly262.8003
Mean Motion14.34212081
Decay Rate7.84E-06
L11 43570U 18061B 24286.58789440 .00000784 00000+0 27287-3 0 9999
L22 43570 86.3946 312.7565 0002481 97.3474 262.8003 14.34212081325596



Live tracking and technical data element details for IRIDIUM 166 (NORAD 43570). IRIDIUM 166 can be tracked NOW for your location showing map with azimuth and elevation plus other details from your city location.







IsCatalogInMostPopularTable: catalog: 43570, numindb: 607
Update: records affected: 1



GetName: 43570 IRIDIUM 166

Hit Count: updated at: Wed, 04 Dec 2024 13:28:36 GMT